Terminal Aerodrome Forecast
Issued by NWS Charleston, SC

Home | Current Version | Previous Version | Text Only | Print | Product List | Glossary On
Versions: 1 2 3 4 5 6 7 8 9 10 11 12 13 14 15 16 17 18
000
FTUS42 KCHS 220500
TAFCHS
TAF
KCHS 220524Z 2206/2306 35008KT P6SM SKC
     FM221330 35011G16KT P6SM SKC
     FM221900 33009KT P6SM SKC=

USA.gov is the U.S. government's official web portal to all federal, state and local government web resources and services.